| time (UTC) | temp F | wind direction | speed MPH | gust MPH | rain 1hr in | rain 24hr in | rain mn in | humidity % | barometer mb |
| 20260507114601 | 35 | 208 | 4.0 | 9.0 | 0.00 | 0.27 | 0.00 | 89 | 1017.3 |
| 20260507113100 | 35 | 217 | 3.0 | 9.0 | 0.00 | 0.27 | 0.00 | 89 | 1017.2 |
| 20260507111559 | 35 | 226 | 4.0 | 9.0 | 0.00 | 0.27 | 0.00 | 90 | 1017.3 |
| 20260507110118 | 35 | 243 | 3.0 | 8.0 | 0.00 | 0.27 | 0.00 | 90 | 1017.4 |
| 20260507104555 | 35 | 228 | 3.0 | 9.0 | 0.00 | 0.29 | 0.00 | 90 | 1017.6 |
| 20260507103059 | 35 | 206 | 3.0 | 6.0 | 0.00 | 0.29 | 0.00 | 90 | 1017.9 |
| 20260507101558 | 36 | 247 | 4.0 | 10.0 | 0.00 | 0.29 | 0.00 | 90 | 1017.8 |
| 20260507100057 | 35 | 233 | 5.0 | 10.0 | 0.00 | 0.29 | 0.00 | 91 | 1017.8 |
| 20260507094608 | 35 | 261 | 4.0 | 9.0 | 0.00 | 0.34 | 0.00 | 91 | 1018.0 |
| 20260507093059 | 35 | 210 | 4.0 | 10.0 | 0.00 | 0.34 | 0.00 | 91 | 1018.3 |
| 20260507091635 | 36 | 232 | 3.0 | 7.0 | 0.00 | 0.34 | 0.00 | 91 | 1018.6 |
| 20260507090106 | 36 | 240 | 4.0 | 8.0 | 0.00 | 0.34 | 0.00 | 91 | 1018.6 |
| 20260507084558 | 36 | 232 | 3.0 | 10.0 | 0.00 | 0.36 | 0.00 | 91 | 1018.7 |
| 20260507083057 | 36 | 218 | 3.0 | 8.0 | 0.00 | 0.36 | 0.00 | 90 | 1018.8 |
| 20260507081556 | 36 | 215 | 2.0 | 7.0 | 0.00 | 0.36 | 0.00 | 90 | 1018.9 |
| 20260507080057 | 37 | 247 | 2.0 | 4.0 | 0.00 | 0.36 | 0.00 | 91 | 1019.2 |
| 20260507074559 | 37 | 220 | 2.0 | 7.0 | 0.00 | 0.43 | 0.00 | 91 | 1019.4 |
| 20260507073054 | 37 | 218 | 3.0 | 8.0 | 0.00 | 0.43 | 0.00 | 91 | 1019.6 |
| 20260507071559 | 38 | 244 | 2.0 | 5.0 | 0.00 | 0.43 | 0.00 | 91 | 1019.7 |
| 20260507070103 | 38 | 228 | 2.0 | 5.0 | 0.00 | 0.43 | 0.00 | 91 | 1019.9 |
| 20260507064559 | 38 | 216 | 4.0 | 9.0 | 0.00 | 0.48 | 0.00 | 92 | 1020.1 |
| 20260507063058 | 38 | 235 | 2.0 | 7.0 | 0.00 | 0.48 | 0.00 | 92 | 1020.2 |
| 20260507061555 | 39 | 247 | 3.0 | 8.0 | 0.00 | 0.48 | 0.00 | 92 | 1020.5 |
| 20260507060110 | 39 | 243 | 2.0 | 6.0 | 0.00 | 0.48 | 0.00 | 92 | 1020.4 |
| 20260507054559 | 39 | 262 | 1.0 | 4.0 | 0.00 | 0.54 | 0.00 | 92 | 1020.5 |
| 20260507053056 | 40 | 254 | 1.0 | 4.0 | 0.00 | 0.54 | 0.00 | 92 | 1020.5 |
| 20260507051557 | 40 | 193 | 0.0 | 3.0 | 0.00 | 0.54 | 0.00 | 92 | 1020.5 |
| 20260507050100 | 40 | 0 | 0.0 | 2.0 | 0.00 | 0.54 | 0.00 | 92 | 1020.7 |
| 20260507044600 | 40 | 193 | 1.0 | 2.0 | 0.00 | 0.55 | 0.54 | 91 | 1020.7 |
| 20260507043101 | 41 | 193 | 0.0 | 5.0 | 0.00 | 0.55 | 0.54 | 91 | 1020.7 |
| 20260507041558 | 41 | 256 | 0.0 | 3.0 | 0.00 | 0.55 | 0.54 | 91 | 1021.1 |
| 20260507040103 | 41 | 267 | 0.0 | 3.0 | 0.00 | 0.55 | 0.54 | 91 | 1020.8 |
| 20260507034600 | 41 | 268 | 0.0 | 1.0 | 0.00 | 0.55 | 0.54 | 91 | 1020.9 |
| 20260507033056 | 42 | 0 | 0.0 | 1.0 | 0.00 | 0.55 | 0.54 | 91 | 1020.9 |
| 20260507031557 | 42 | 0 | 0.0 | 2.0 | 0.00 | 0.55 | 0.54 | 91 | 1020.9 |
| 20260507030057 | 42 | 0 | 0.0 | 3.0 | 0.00 | 0.55 | 0.54 | 90 | 1020.8 |
| 20260507024602 | 42 | 0 | 0.0 | 1.0 | 0.00 | 0.55 | 0.54 | 89 | 1020.5 |
| 20260507023058 | 42 | 0 | 0.0 | 2.0 | 0.00 | 0.55 | 0.54 | 88 | 1020.2 |
| 20260507021601 | 43 | 0 | 0.0 | 1.0 | 0.00 | 0.55 | 0.54 | 88 | 1019.8 |
| 20260507020057 | 43 | 0 | 0.0 | 0.0 | 0.00 | 0.55 | 0.54 | 88 | 1019.7 |
| 20260507014604 | 44 | 0 | 0.0 | 0.0 | 0.00 | 0.55 | 0.54 | 88 | 1019.6 |
| 20260507013058 | 44 | 0 | 0.0 | 1.0 | 0.01 | 0.55 | 0.54 | 88 | 1019.6 |
| 20260507011611 | 44 | 0 | 0.0 | 2.0 | 0.02 | 0.55 | 0.54 | 88 | 1019.7 |
| 20260507010116 | 44 | 0 | 0.0 | 3.0 | 0.06 | 0.55 | 0.54 | 88 | 1019.9 |
| 20260507004608 | 44 | 314 | 0.0 | 4.0 | 0.07 | 0.55 | 0.54 | 88 | 1019.7 |
| 20260507003105 | 44 | 0 | 0.0 | 2.0 | 0.07 | 0.54 | 0.52 | 87 | 1019.6 |
| 20260507001601 | 44 | 0 | 0.0 | 2.0 | 0.08 | 0.52 | 0.52 | 86 | 1019.6 |
| 20260507000101 | 45 | 54 | 0.0 | 2.0 | 0.04 | 0.49 | 0.48 | 85 | 1019.7 |
| 20260506234614 | 45 | 55 | 0.0 | 2.0 | 0.03 | 0.48 | 0.47 | 84 | 1019.7 |
| 20260506233103 | 45 | 0 | 0.0 | 3.0 | 0.02 | 0.47 | 0.46 | 82 | 1019.6 |
| 20260506231557 | 46 | 57 | 0.0 | 3.0 | 0.00 | 0.45 | 0.44 | 81 | 1019.5 |
| 20260506230056 | 46 | 0 | 2.0 | 5.0 | 0.00 | 0.45 | 0.44 | 80 | 1019.2 |
| 20260506224557 | 47 | 62 | 1.0 | 9.0 | 0.00 | 0.45 | 0.44 | 74 | 1019.1 |
| 20260506223105 | 49 | 95 | 1.0 | 4.0 | 0.00 | 0.45 | 0.44 | 68 | 1019.1 |
| 20260506221617 | 49 | 122 | 1.0 | 4.0 | 0.00 | 0.45 | 0.44 | 66 | 1018.9 |
| 20260506220100 | 49 | 143 | 2.0 | 4.0 | 0.00 | 0.45 | 0.44 | 66 | 1019.2 |
| 20260506214607 | 49 | 114 | 1.0 | 4.0 | 0.00 | 0.45 | 0.44 | 70 | 1019.2 |
| 20260506213105 | 48 | 183 | 0.0 | 6.0 | 0.01 | 0.45 | 0.44 | 77 | 1019.3 |
| 20260506211601 | 47 | 0 | 0.0 | 5.0 | 0.01 | 0.45 | 0.44 | 80 | 1019.5 |
| 20260506204613 | 45 | 85 | 2.0 | 8.0 | 0.02 | 0.45 | 0.44 | 82 | 1019.6 |
| 20260506203056 | 45 | 0 | 1.0 | 4.0 | 0.01 | 0.44 | 0.43 | 85 | 1019.6 |
| 20260506201600 | 44 | 0 | 2.0 | 4.0 | 0.01 | 0.44 | 0.43 | 86 | 1019.9 |
| 20260506200057 | 44 | 77 | 1.0 | 4.0 | 0.01 | 0.44 | 0.43 | 86 | 1019.7 |
| 20260506194558 | 44 | 37 | 2.0 | 4.0 | 0.00 | 0.43 | 0.42 | 86 | 1019.8 |
| 20260506193055 | 43 | 31 | 1.0 | 4.0 | 0.00 | 0.43 | 0.42 | 86 | 1019.8 |
| 20260506191554 | 43 | 0 | 1.0 | 7.0 | 0.01 | 0.43 | 0.42 | 86 | 1019.9 |
| 20260506190059 | 43 | 116 | 3.0 | 9.0 | 0.01 | 0.43 | 0.42 | 86 | 1020.0 |
| 20260506184557 | 43 | 66 | 2.0 | 8.0 | 0.01 | 0.43 | 0.42 | 87 | 1020.1 |
| 20260506183058 | 42 | 73 | 3.0 | 10.0 | 0.01 | 0.43 | 0.42 | 88 | 1020.2 |
| 20260506181553 | 42 | 74 | 4.0 | 9.0 | 0.01 | 0.42 | 0.41 | 88 | 1020.3 |
| 20260506174601 | 41 | 1 | 4.0 | 9.0 | 0.01 | 0.42 | 0.41 | 90 | 1020.4 |
| 20260506173126 | 41 | 83 | 1.0 | 10.0 | 0.01 | 0.42 | 0.41 | 92 | 1020.5 |
| 20260506171555 | 40 | 64 | 3.0 | 7.0 | 0.00 | 0.41 | 0.40 | 92 | 1020.3 |
| 20260506170055 | 39 | 27 | 1.0 | 10.0 | 0.00 | 0.41 | 0.40 | 92 | 1020.3 |
| 20260506164557 | 39 | 23 | 2.0 | 9.0 | 0.00 | 0.41 | 0.40 | 92 | 1020.2 |
| 20260506163056 | 39 | 24 | 3.0 | 6.0 | 0.01 | 0.41 | 0.40 | 92 | 1020.2 |
| 20260506161609 | 38 | 23 | 2.0 | 8.0 | 0.01 | 0.41 | 0.40 | 92 | 1020.1 |
| 20260506160107 | 38 | 45 | 1.0 | 8.0 | 0.02 | 0.41 | 0.40 | 92 | 1020.1 |
| 20260506154600 | 38 | 30 | 2.0 | 7.0 | 0.04 | 0.41 | 0.40 | 92 | 1020.0 |
| 20260506153054 | 38 | 58 | 2.0 | 9.0 | 0.05 | 0.40 | 0.39 | 93 | 1019.9 |
| 20260506151558 | 39 | 67 | 2.0 | 9.0 | 0.06 | 0.40 | 0.39 | 93 | 1019.7 |
| 20260506144611 | 39 | 56 | 1.0 | 7.0 | 0.05 | 0.37 | 0.36 | 94 | 1019.6 |
| 20260506143057 | 39 | 76 | 2.0 | 6.0 | 0.04 | 0.35 | 0.34 | 94 | 1019.4 |
| 20260506141554 | 39 | 45 | 2.0 | 9.0 | 0.05 | 0.34 | 0.33 | 94 | 1019.3 |
| 20260506140112 | 39 | 71 | 1.0 | 4.0 | 0.04 | 0.33 | 0.32 | 94 | 1019.3 |
| 20260506134556 | 39 | 347 | 0.0 | 4.0 | 0.03 | 0.32 | 0.31 | 94 | 1019.4 |
| 20260506133141 | 39 | 0 | 0.0 | 5.0 | 0.02 | 0.31 | 0.30 | 94 | 1019.2 |
| 20260506131558 | 39 | 0 | 0.0 | 4.0 | 0.01 | 0.29 | 0.28 | 94 | 1019.2 |
| 20260506130138 | 39 | 1 | 2.0 | 8.0 | 0.01 | 0.29 | 0.28 | 93 | 1018.9 |
| 20260506124558 | 39 | 1 | 1.0 | 3.0 | 0.01 | 0.29 | 0.28 | 93 | 1019.0 |
| 20260506123101 | 38 | 0 | 0.0 | 2.0 | 0.01 | 0.29 | 0.28 | 93 | 1018.3 |
| 20260506121603 | 38 | 0 | 0.0 | 4.0 | 0.00 | 0.28 | 0.27 | 93 | 1017.9 |
| 20260506120104 | 38 | 0 | 0.0 | 4.0 | 0.00 | 0.28 | 0.27 | 93 | 1017.7 |